Location: Branche des Alpilles
(43.6087°N, 4.6976°E)
Time: 10:10:17
(UTC+00:00)

Cosmos 2263 - Pass Details

Date: 30 November 2020
Orbit: 833 x 864 km, 70.9° (Epoch: 25 January)

Event Time Altitude Azimuth Distance (km) Brightness Sun altitude
Rises 17:25:53 0° 339° (NNW) 3,392 7.4 -14.1°
Reaches altitude 10° 17:28:28 10° 347° (NNW) 2,452 6.6 -14.5°
Maximum altitude 17:33:48 43° 58° (ENE) 1,163 4.5 -15.5°
Drops below altitude 10° 17:39:05 10° 129° (SE) 2,439 6.3 -16.4°
Enters shadow 17:40:26 - 133° (SE) 2,925 6.7 -16.6°
